Regional Weather Roundup
Issued by NWS

Home | Current Version | Previous Version | Text Only | Print | Product List | Glossary Off
Versions: 1 2 3 4 5 6 7 8 9 10 11 12 13 14 15 16 17 18 19 20 21 22 23 24 25 26 27 28 29 30 31 32 33 34 35 36 37 38 39 40 41 42 43 44 45 46 47 48 49 50

000
ASUS43 KMPX 200110
RWRMN
WEATHER ROUNDUP FOR MINNESOTA
NATIONAL WEATHER SERVICE TWIN CITIES/CHANHASSEN MN
700 PM CST SUN NOV 19 2017


NOTE: "FAIR" INDICATES FEW OR NO CLOUDS BELOW 12,000 FEET WITH NO
SIGNIFICANT WEATHER AND/OR OBSTRUCTIONS TO VISIBILITY. N/A MEANS
CURRENT SKY AND/OR WEATHER CONDITIONS ARE NOT AVAILABLE.

MNZ060>063-068>070-200200-
   Twin Cities Metro

CITY           SKY/WX    TMP DP  RH WIND       PRES   REMARKS
TWIN CITIES    MOCLDY    38  26  62 SW5       29.85S
ST PAUL        CLEAR     33  25  72 E5        29.86F WCI  29
CRYSTAL        CLEAR     28  20  71 S5        29.83F WCI  23
BLAINE         CLEAR     30  25  80 S6        29.83F WCI  24
LAKEVILLE      CLEAR     36  27  69 CALM      29.86S
EDEN PRAIRIE   CLEAR     36  25  64 S8        29.84S
SOUTH ST PAUL  CLEAR     33  25  70 S3        29.85S
LAKE ELMO      FAIR      30  23  74 S5        29.86F WCI  25
$$
MNZ001>005-007-008-013>017-022>024-027-028-200200-
   Northwest Minnesota

CITY           SKY/WX    TMP DP  RH WIND       PRES   REMARKS
BEMIDJI        CLEAR     22  18  82 CALM      29.75F
HALLOCK        CLOUDY    16  12  86 CALM      29.76F
ROSEAU         CLOUDY    19  16  86 CALM      29.76F
WARROAD        CLOUDY    19  16  86 E3        29.77S
THIEF RVR FALL CLEAR     21  17  84 CALM      29.76F
CROOKSTON      CLEAR     27  25  93 SE3       29.77F
FOSSTON        CLEAR     23  19  86 S3        29.76F
DETROIT LAKES  CLEAR     32  27  80 CALM      29.77F
MOORHEAD       CLOUDY    28  19  69 CALM      29.78S
PARK RAPIDS    CLEAR     29  22  75 S3        29.76S
MAHNOMEN       FAIR      29  24  79 S6        29.75F WCI  23
$$
MNZ006-009>011-018-025>026-200200-
   North Central Minnesota

CITY           SKY/WX    TMP DP  RH WIND       PRES   REMARKS
BAUDETTE       CLOUDY    17  13  84 SE5       29.76F WCI  10
FLAG ISLAND    PTCLDY    19  16  86 S3        29.76F
INTL FALLS     CLOUDY    15  10  80 CALM      29.79F
WASKISH        CLEAR     19  14  79 SE5       29.76F WCI  13
BIG FORK       CLOUDY    12  10  92 CALM      29.78F
LONGVILLE      CLEAR     19  18  93 CALM      29.77F
GRAND RAPIDS   CLEAR     17  14  88 CALM      29.79F
CRANE LAKE     CLOUDY    10  10 100 CALM      29.83F
ORR            CLOUDY    14  10  85 CALM      29.77F
COOK           CLOUDY    12  10  92 CALM      29.80F
WALKER         FAIR      27  20  76 SW3       29.76S
$$
MNZ012-019>021-037-200200-
   Northeast Minnesota

CITY           SKY/WX    TMP DP  RH WIND       PRES   REMARKS
DULUTH         CLOUDY    19  15  84 CALM      29.80F
ELY            CLOUDY    16  12  86 SW5       29.80F WCI   9
HIBBING        CLOUDY    13  10  88 CALM      29.80S
EVELETH        CLOUDY    12   9  85 CALM      29.81F
DULUTH HARBOR  CLOUDY    28  18  64 CALM      29.85F
TWO HARBORS    CLOUDY    21  16  79 CALM      29.81F
SILVER BAY     CLOUDY    18  16  93 CALM      29.82S
GRAND MARAIS     N/A     21  12  68 NW3       29.86R
G MARAIS ARPRT MOCLDY    12   7  79 CALM      29.78R
$$
MNZ029>031-032-039>041-046>048-054>057-064-200200-
   West Central Minnesota

CITY           SKY/WX    TMP DP  RH WIND       PRES   REMARKS
FERGUS FALLS   CLOUDY    34  25  69 SE3       29.80F
WHEATON        CLOUDY    36  23  60 S8        29.80F
MORRIS         CLOUDY    34  25  69 SW7       29.79F WCI  28
ALEXANDRIA     CLOUDY    34  25  69 SW9       29.79F WCI  27
ELBOW LAKE     FAIR      32  23  69 S5        29.78F WCI  28
WADENA         CLOUDY    25  21  86 CALM      29.77S
GLENWOOD       CLOUDY    34  25  69 SW3       29.80F
APPLETON       CLOUDY    39  23  52 SW6       29.81S
BENSON         CLOUDY    37  23  56 SW6       29.82F
ORTONVILLE     CLOUDY    39  25  56 MISG      29.80S
MADISON        CLOUDY    41  27  56 SW9       29.81F
WILLMAR        FAIR      39  27  60 SW8       29.83S
$$
MNZ033>034-036-042>043-049>051-058-059-200200-
   Central Minnesota

CITY           SKY/WX    TMP DP  RH WIND       PRES   REMARKS
ST CLOUD       CLOUDY    28  23  81 S5        29.80F WCI  23
SAUK CENTRE    FAIR      36  26  69 SW9       29.80S
PAYNESVILLE    CLOUDY    38  28  69 SW7       29.81F
AITKIN         CLEAR     25  19  80 CALM      29.78S
PINE RIVER     CLEAR     23  19  86 CALM      29.81F
BRAINERD       CLEAR     26  20  77 S6        29.79F WCI  19
STAPLES        CLOUDY    23  19  86 CALM      29.78S
LONG PRAIRIE   FAIR      30  27  86 S6        29.79S WCI  24
LITTLE FALLS   CLOUDY    28  21  74 CALM      29.80F
LITCHFIELD     CLOUDY    36  27  69 CALM      29.83S
BUFFALO        CLOUDY    32  25  75 CALM      29.83F
MAPLE LAKE     CLOUDY    34  28  77 CALM      29.83S
HUTCHINSON     CLOUDY    36  27  67 CALM      29.85F
$$
MNZ037-044-045-052-053-200200-
   East Central Minnesota

CITY           SKY/WX    TMP DP  RH WIND       PRES   REMARKS
PRINCETON      CLEAR     27  25  93 CALM      29.81F
MORA           CLEAR     27  21  80 CALM      29.84F
CAMBRIDGE      CLOUDY    30  19  64 CALM      29.83F
RUSH CITY      CLOUDY    28  19  70 SE5       29.84F WCI  22
MOOSE LAKE     CLOUDY    25  18  74 CALM      29.80F
HINCKLEY       FAIR      28  21  74 SE3       29.83F
CLOQUET        CLOUDY    21  16  79 E3        29.80F
MCGREGOR       CLEAR     27  19  74 S3        29.79F
$$
MNZ071>073-080-081-089-090-097-098-200200-
   Southwest Minnesota

CITY           SKY/WX    TMP DP  RH WIND       PRES   REMARKS
MONTEVIDEO     CLOUDY    39  25  56 W8        29.82F
GRANITE FALLS  CLOUDY    38  26  63 S10       29.84F
CANBY          CLOUDY    43  25  48 SW10      29.83F
MARSHALL       CLOUDY    44  24  45 SW16      29.84F
REDWOOD FALLS  CLOUDY    39  22  50 SW13      29.83F
OLIVIA         CLOUDY    36  27  69 SW9       29.83F
PIPESTONE      CLOUDY    36  23  60 SW6       29.85F
WINDOM         CLOUDY    41  23  48 S8        29.87F
WORTHINGTON    CLOUDY    40  26  57 SW10      29.88F
JACKSON        CLOUDY    36  27  69 S7        29.89F
SLAYTON        CLOUDY    35  24  63 SW13      29.87F WCI  27
$$
MNZ065>067-074>077-082>085-091>093-200200-
   South Central Minnesota

CITY           SKY/WX    TMP DP  RH WIND       PRES   REMARKS
MANKATO        CLOUDY    39  24  55 S8        29.88S
NEW ULM        CLOUDY    37  23  56 CALM      29.86S
ST JAMES       CLOUDY    37  25  60 S7        29.88F
FAIRMONT       CLOUDY    36  26  67 SW8       29.90F
GLENCOE        CLOUDY    40  27  59 SW3       29.84F
FARIBAULT      CLEAR     36  27  69 CALM      29.88S
OWATONNA       CLEAR     37  28  70 S13       29.89S
WASECA         CLOUDY    34  28  80 S9        29.90F WCI  26
ALBERT LEA     CLOUDY    37  27  65 S6        29.91S
$$
MNZ078>079-086>088-094>096-200200-
   Southeast Minnesota

CITY           SKY/WX    TMP DP  RH WIND       PRES   REMARKS
ROCHESTER      CLEAR     34  27  75 S14       29.90F WCI  25
RED WING       CLEAR     32  23  69 CALM      29.88S
STANTON        CLEAR     35  28  75 S7        29.86S WCI  29
DODGE CENTER   CLEAR     36  27  69 S16       29.89F
WINONA         CLEAR     34  27  75 SW3       29.92F
AUSTIN         CLOUDY    30  25  80 S7        29.92S WCI  23
PRESTON        CLEAR     33  25  72 SW13      29.92F WCI  23
$$
ABBREVIATIONS USED IN REMARKS
   TC - TEMPERATURES IN CELSIUS
  WCI - WIND CHILL INDEX
   HX - HEAT INDEX
  VSB - VISIBILITY
$$




USA.gov is the U.S. government's official web portal to all federal, state and local government web resources and services.